Printer-friendly version

IAU Minor Planet Center

Minor Planet Center

MPEC 2006-V02 : 2006 UL217

The following Minor Planet Electronic Circular may be linked-to from your own Web pages, but must not otherwise be redistributed electronically.

A form allowing access to any MPEC is at the bottom of this page.


Read MPEC 2006-V01 Read MPEC 2006-V03


M.P.E.C. 2006-V02                                Issued 2006 Nov. 1, 00:58 UT

     The Minor Planet Electronic Circulars contain information on unusual
         minor planets and routine data on comets.  They are published
   on behalf of Commission 20 of the International Astronomical Union by the
          Minor Planet Center, Smithsonian Astrophysical Observatory,
                          Cambridge, MA 02138, U.S.A.

             Prepared using the Tamkin Foundation Computer Network

                              MPC@CFA.HARVARD.EDU
          URL http://cfa-www.harvard.edu/iau/mpc.html  ISSN 1523-6714

                                  2006 UL217

Observations:
     K06UL7L* C2006 10 31.39936 07 11 49.23 +00 03 02.2          15.9   EV002704
     K06UL7L  C2006 10 31.41103 07 11 40.79 +00 06 59.1          15.9   EV002704
     K06UL7L  C2006 10 31.42285 07 11 32.25 +00 10 59.2          16.1   EV002704
     K06UL7L  C2006 10 31.43464 07 11 23.65 +00 14 58.7          15.7   EV002704
     K06UL7L  C2006 11 01.02037 07 05 06.77 +03 28 37.6                 EV002J95
     K06UL7L  C2006 11 01.02103 07 05 06.35 +03 28 50.5                 EV002J95
     K06UL7L  C2006 11 01.02170 07 05 05.89 +03 29 03.5          16.1 R EV002J95

Observer details:
704 Lincoln Laboratory ETS, New Mexico.  Observers M. Bezpalko, L. Manguso,
    D. Torres, R. Kracke, H. Love, G. Spitz, J. Kistler.  Measurers J. Stuart,
    J. Kommers.  1.0-m f/2.15 reflector + CCD.
J95 Great Shefford.  Observer P. Birtwhistle.  0.40-m f/6.0 Schmidt-Cassegrain
    + CCD.

Orbital elements:
2006 UL217                                          PHA, Earth MOID = 0.0215 AU
Epoch 2006 Sept. 22.0 TT = JDT 2454000.5                MPC
M 358.43193              (2000.0)            P               Q
n   0.57308492     Peri.  310.20450     +0.98897346     +0.08437182
a   1.4354566      Node    45.34482     -0.01195670     +0.86464513
e   0.3506960      Incl.    9.85148     -0.14760938     +0.49524760
P   1.72           H   19.8           G   0.15           U   7
Residuals in seconds of arc
061031 704  0.1-  0.2+    061031 704  0.2-  0.1+    061101 J95  0.1-  0.0
061031 704  0.1-  0.1-    061101 J95  0.1-  0.1+
061031 704  0.3+  0.1-    061101 J95  0.2+  0.1+

Ephemeris:
2006 UL217               a,e,i = 1.44, 0.35, 10                  q = 0.9320
Date    TT    R. A. (2000) Decl.     Delta      r     Elong.  Phase     V
2006 11 01    07 05.22   +03 24.2    0.0445   1.009   109.9    67.7    15.4
2006 11 11    05 42.53   +36 44.2    0.0765   1.050   140.0    37.3    15.8
2006 11 21    04 51.99   +46 20.4    0.123    1.096   150.1    26.7    16.7
2006 12 01    04 21.39   +48 46.5    0.177    1.147   152.9    23.0    17.4
2006 12 11    04 05.52   +48 38.3    0.238    1.199   151.2    23.3    18.2
2006 12 21    04 00.43   +47 29.5    0.308    1.253   146.8    25.4    18.9
2006 12 31    04 03.44   +46 01.2    0.386    1.306   141.2    28.2    19.6
2007 01 10    04 12.21   +44 32.0    0.473    1.359   135.0    30.8    20.2
2007 01 20    04 25.03   +43 08.4    0.568    1.411   128.8    32.9    20.7
2007 01 30    04 40.83   +41 52.2    0.672    1.461   122.6    34.6    21.2
2007 02 09    04 58.70   +40 42.2    0.783    1.510   116.6    35.7    21.6
2007 02 19    05 18.02   +39 36.1    0.901    1.556   110.8    36.4    22.0

Timothy B. Spahr             (C) Copyright 2006 MPC           M.P.E.C. 2006-V02

Read MPEC 2006-V01 Read MPEC 2006-V03


MPEC number:

Enter an
MPEC number in one of the following forms:
  • 1997-B01 (the full form)
  • J97B01 (the packed version of the full form)
  • B01 (the abbreviated form)

Valid HTML 4.01!